Location: Central Falls
(41.8900°N, 71.3929°W)
Time: 15:17:22
(UTC+00:00)

Vanguard 1 - Pass Details

Date: 12 December 2023
Orbit: 653 x 3826 km, 34.3° (Epoch: 24 February)

Event Time Altitude Azimuth Distance (km) Brightness Sun altitude
Rises 21:14:13 0° 242° (WSW) 4,612 17.3 -0.8°
Reaches altitude 10° 21:16:46 10° 238° (WSW) 3,938 15.4 -1.2°
Maximum altitude 21:27:39 59° 162° (SSE) 2,790 12.5 -2.9°
Drops below altitude 10° 21:46:57 10° 90° (E) 6,610 13.7 -6.1°
Enters shadow 21:52:01 - 88° (E) 7,698 14.0 -7.0°
Sets 21:52:46 0° 88° (E) 7,855 - -7.1°
